Date String (YYYY-MM-DD hh:mm:ss) UTC,Instrument flags,absolute air pressure of the measurement (hPa),sample flow rate (lpm),inlet stack bypass flow (lpm),air temperature of the measurement (°C),ambient temperature measured by the external sensor (°C),aerosol sample conditioner tube jacket temperature (°C),OPC LED temperature (°C),internal box temperature (°C),relative humidity of the measurement (%),span deviation,mass concentration of particles derived from Lorenz-Mie calculation of OPC scattering (μg/m³),mass concentration of particles derived from Lorenz-Mie calculation of OPC scattering (μg/m³),mass concentration of particles derived from Lorenz-Mie calculation of OPC scattering (μg/m³)
DateTimeUTC,F1_M11,P_M11,Q1_M11,Q2_M11,T1_M11,T2_M11,T3_M11,T4_M11,T5_M11,U1_M11,ZSPAN_M11,X0_M11,X2_M11,X1_M11
2023-11-17 20:00:00,SystemResetWarning,0830.7,4.99,000.00,026.0,023.1,000.0,033.9,027.3,19.5,0001.2,0017.25,0010.23,0009.42
2023-11-17 20:01:00,SystemResetWarning,0830.7,5.01,000.00,025.8,022.5,000.0,033.9,027.1,19.5,0001.4,0017.46,0010.15,0009.36
2023-11-17 20:02:00,SystemResetWarning,0830.6,5.00,000.00,025.7,022.7,000.0,033.9,026.8,19.6,0001.5,0018.54,0010.11,0009.31
2023-11-17 20:03:00,SystemResetWarning,0830.6,5.00,000.00,025.7,023.1,000.0,033.9,026.8,19.8,0001.5,0018.30,0010.06,0009.28
2023-11-17 20:04:00,SystemResetWarning,0830.6,5.00,000.00,025.6,023.5,000.0,033.9,026.9,19.8,0001.2,0018.64,0010.05,0009.27
2023-11-17 20:05:00,SystemResetWarning,0830.6,4.99,000.00,025.7,023.8,000.0,033.9,027.0,19.7,0000.8,0018.64,0009.97,0009.24
2023-11-17 20:06:00,SystemResetWarning,0830.6,5.00,000.00,025.7,024.1,000.0,033.9,027.1,19.7,0000.5,0019.19,0009.92,0009.18
2023-11-17 20:07:00,SystemResetWarning,0830.6,5.00,000.00,025.7,024.3,000.0,033.9,027.2,19.7,0000.3,0019.18,0009.91,0009.10
2023-11-17 20:08:00,SystemResetWarning,0830.6,5.00,000.00,025.8,024.5,000.0,033.9,027.3,19.6,0000.0,0018.83,0009.94,0009.07
2023-11-17 20:09:00,SystemResetWarning,0830.6,4.99,000.00,025.8,024.7,000.0,033.9,027.4,19.5,0000.1,0019.69,0009.99,0009.07
2023-11-17 20:10:00,SystemResetWarning,0830.7,4.99,000.00,025.9,024.8,000.0,033.9,027.5,19.4,-000.1,0020.11,0009.98,0009.08
2023-11-17 20:11:00,SystemResetWarning,0830.7,5.00,000.00,025.9,025.0,000.0,033.9,027.5,19.3,-000.2,0019.41,0009.98,0009.11
2023-11-17 20:12:00,SystemResetWarning,0830.7,5.01,000.00,026.0,025.1,000.0,034.0,027.6,19.3,-000.4,0019.71,0010.04,0009.14
2023-11-17 20:13:00,SystemResetWarning,0830.7,5.01,000.00,026.0,025.2,000.0,034.0,027.7,19.3,-000.0,0018.68,0010.04,0009.16
2023-11-17 20:14:00,SystemResetWarning,0830.7,5.00,000.00,026.1,025.3,000.0,034.0,027.7,19.2,-000.1,0018.48,0010.10,0009.19
2023-11-17 20:15:00,SystemResetWarning,0830.7,5.00,000.00,026.1,025.4,000.0,034.1,027.8,19.3,0000.3,0018.44,0010.14,0009.19
2023-11-17 20:16:00,SystemResetWarning,0830.7,5.00,000.00,026.1,025.1,000.0,034.1,027.8,19.2,0000.7,0020.24,0010.19,0009.21
2023-11-17 20:17:00,SystemResetWarning,0830.7,5.00,000.00,026.1,023.3,000.0,034.1,027.5,19.2,0001.2,0021.11,0010.24,0009.25
2023-11-17 20:18:00,SystemResetWarning,0830.7,5.01,000.00,026.0,022.6,000.0,034.0,027.3,19.3,0001.7,0022.22,0010.25,0009.29
2023-11-17 20:19:00,SystemResetWarning,0830.7,5.02,000.00,025.9,022.8,000.0,034.0,026.9,19.4,0001.8,0022.19,0010.21,0009.30
2023-11-17 20:20:00,SystemResetWarning,0830.7,5.00,000.00,025.8,023.2,000.0,034.0,026.9,19.6,0001.5,0021.86,0010.21,0009.30
2023-11-17 20:21:00,SystemResetWarning,0830.7,5.00,000.00,025.8,023.5,000.0,034.0,027.0,19.6,0001.7,0021.20,0010.26,0009.32
2023-11-17 20:22:00,SystemResetWarning,0830.8,5.00,000.00,025.8,023.9,000.0,034.0,027.1,19.5,0001.8,0021.51,0010.26,0009.31
2023-11-17 20:23:00,SystemResetWarning,0830.8,5.00,000.00,025.8,024.2,000.0,034.0,027.2,19.5,0001.9,0020.71,0010.21,0009.28
2023-11-17 20:24:00,SystemResetWarning,0830.8,5.00,000.00,025.8,024.4,000.0,034.0,027.3,19.5,0001.8,0020.56,0010.23,0009.27
2023-11-17 20:25:00,SystemResetWarning,0830.8,5.00,000.00,025.9,024.6,000.0,034.0,027.4,19.5,0001.5,0021.17,0010.19,0009.25
2023-11-17 20:26:00,SystemResetWarning,0830.8,5.00,000.00,025.9,024.8,000.0,034.0,027.5,19.4,0001.3,0020.85,0010.17,0009.26
2023-11-17 20:27:00,SystemResetWarning,0830.9,5.00,000.00,026.0,024.9,000.0,034.0,027.6,19.3,0000.9,0019.75,0010.23,0009.28
2023-11-17 20:28:00,SystemResetWarning,0830.9,4.99,000.00,026.0,025.1,000.0,034.1,027.6,19.3,0000.9,0018.52,0010.28,0009.33
2023-11-17 20:29:00,SystemResetWarning,0830.8,5.00,000.00,026.1,025.1,000.0,034.1,027.7,19.3,0000.4,0017.49,0010.35,0009.38
2023-11-17 20:30:00,SystemResetWarning,0830.8,4.98,000.00,026.1,023.7,000.0,034.1,027.5,19.2,0000.3,0017.59,0010.42,0009.43
2023-11-17 20:31:00,SystemResetWarning,0830.8,5.00,000.00,025.9,021.9,000.0,034.0,027.0,19.3,0000.5,0017.43,0010.44,0009.47
2023-11-17 20:32:00,SystemResetWarning,0830.8,5.01,000.00,025.8,021.6,000.0,034.0,026.8,19.4,0000.5,0017.44,0010.44,0009.51
2023-11-17 20:33:00,SystemResetWarning,0830.8,5.00,000.00,025.6,022.0,000.0,033.9,026.6,19.6,0000.6,0017.53,0010.54,0009.58
2023-11-17 20:34:00,SystemResetWarning,0830.8,4.99,000.00,025.5,022.5,000.0,033.9,026.6,19.8,0000.4,0018.74,0010.61,0009.65
2023-11-17 20:35:00,SystemResetWarning,0830.8,5.00,000.00,025.5,022.9,000.0,033.8,026.7,19.8,0000.4,0019.06,0010.67,0009.71
2023-11-17 20:36:00,SystemResetWarning,0830.8,5.00,000.00,025.5,023.3,000.0,033.8,026.8,19.8,0000.7,0018.84,0010.74,0009.78
2023-11-17 20:37:00,SystemResetWarning,0830.8,4.99,000.00,025.6,023.7,000.0,033.8,027.0,19.8,0000.9,0019.85,0010.79,0009.83
2023-11-17 20:38:00,SystemResetWarning,0830.8,5.00,000.00,025.6,024.0,000.0,033.8,027.1,19.7,0001.2,0019.87,0010.80,0009.88
2023-11-17 20:39:00,SystemResetWarning,0830.8,5.00,000.00,025.6,024.2,000.0,033.8,027.2,19.6,0001.1,0019.84,0010.78,0009.89
2023-11-17 20:40:00,SystemResetWarning,0830.9,5.00,000.00,025.7,024.4,000.0,033.8,027.3,19.6,0001.1,0019.49,0010.75,0009.91
2023-11-17 20:41:00,SystemResetWarning,0830.8,5.01,000.00,025.7,024.6,000.0,033.8,027.3,19.6,0001.2,0019.49,0010.74,0009.94
2023-11-17 20:42:00,SystemResetWarning,0830.9,4.99,000.00,025.8,024.8,000.0,033.9,027.4,19.6,0001.2,0019.27,0010.81,0009.96
2023-11-17 20:43:00,SystemResetWarning,0830.9,5.00,000.00,025.8,024.9,000.0,033.9,027.5,19.6,0001.2,0019.23,0010.84,0009.98
2023-11-17 20:44:00,SystemResetWarning,0830.8,5.00,000.00,025.9,025.0,000.0,033.9,027.6,19.4,0001.3,0019.67,0010.80,0010.02
2023-11-17 20:45:00,SystemResetWarning,0830.8,5.00,000.00,026.0,025.1,000.0,033.9,027.6,19.5,0001.5,0018.92,0010.88,0010.06
2023-11-17 20:46:00,SystemResetWarning,0830.8,5.00,000.00,026.0,025.2,000.0,034.0,027.7,19.5,0001.6,0018.56,0010.89,0010.08
2023-11-17 20:47:00,SystemResetWarning,0830.8,5.01,000.00,026.1,025.3,000.0,034.0,027.8,19.4,0001.8,0018.24,0010.93,0010.10
2023-11-17 20:48:00,SystemResetWarning,0830.8,4.99,000.00,026.1,024.1,000.0,034.0,027.6,19.4,0001.7,0017.76,0010.93,0010.10
2023-11-17 20:49:00,SystemResetWarning,0830.8,5.01,000.00,025.9,022.2,000.0,034.0,027.1,19.5,0001.4,0017.02,0010.91,0010.09
2023-11-17 20:50:00,SystemResetWarning,0830.8,5.01,000.00,025.8,021.7,000.0,033.9,026.8,19.6,0001.3,0016.87,0010.91,0010.10
2023-11-17 20:51:00,SystemResetWarning,0830.8,5.01,000.00,025.6,022.0,000.0,033.9,026.5,19.6,0001.4,0017.03,0010.98,0010.13
2023-11-17 20:52:00,SystemResetWarning,0830.8,5.00,000.00,025.5,022.5,000.0,033.8,026.5,19.7,0001.6,0017.43,0011.07,0010.19
2023-11-17 20:53:00,SystemResetWarning,0830.8,5.00,000.00,025.5,022.9,000.0,033.8,026.7,19.7,0001.4,0017.78,0011.14,0010.24
2023-11-17 20:54:00,SystemResetWarning,0830.8,4.99,000.00,025.5,023.3,000.0,033.8,026.8,19.7,0001.0,0017.95,0011.21,0010.32
2023-11-17 20:55:00,SystemResetWarning,0830.8,5.00,000.00,025.6,023.7,000.0,033.8,027.0,19.7,0000.9,0018.03,0011.33,0010.36
2023-11-17 20:56:00,SystemResetWarning,0830.8,5.00,000.00,025.6,024.0,000.0,033.8,027.1,19.6,0000.5,0017.72,0011.35,0010.38
2023-11-17 20:57:00,SystemResetWarning,0830.8,5.01,000.00,025.7,024.3,000.0,033.8,027.2,19.5,0000.4,0017.87,0011.43,0010.39
2023-11-17 20:58:00,SystemResetWarning,0830.8,5.00,000.00,025.7,024.5,000.0,033.8,027.3,19.7,0000.2,0018.62,0011.43,0010.40
2023-11-17 20:59:00,SystemResetWarning,0830.8,5.00,000.00,025.8,024.7,000.0,033.8,027.4,19.7,0000.2,0019.75,0011.45,0010.42
